Location: Dompnac
(44.5644°N, 4.1026°E)
Time: 10:58:31
(UTC+00:00)

Cosmos 1844 Rocket - Pass Details

Date: 19 September 2020
Orbit: 823 x 846 km, 71.0° (Epoch: 29 October)

Event Time Altitude Azimuth Distance (km) Brightness Sun altitude
Rises 19:19:51 0° 192° (SSW) 3,343 5.7 -17.2°
Reaches altitude 10° 19:22:17 10° 189° (S) 2,415 5.0 -17.6°
Maximum altitude 19:27:43 60° 111° (ESE) 940 2.6 -18.5°
Drops below altitude 10° 19:33:12 10° 32° (NNE) 2,441 5.0 -19.4°
Sets 19:35:40 0° 29° (NNE) 3,381 5.8 -19.8°
